Time,TemperatureF,DewpointF,PressureIn,WindDirection,WindDirectionDegrees,WindSpeedMPH,WindSpeedGustMPH,Humidity,HourlyPrecipIn,Conditions,Clouds,dailyrainin,SoftwareType,DateUTC
2013-06-16 00:02:00,70.0,-99.9,-100.00,SSE,147,4.0,12.0,-999,-99.99,,,-99.99,,2013-06-16 04:02:00,
2013-06-16 00:12:00,70.0,-99.9,-100.00,SSE,147,4.0,12.0,-999,-99.99,,,-99.99,,2013-06-16 04:12:00,
2013-06-16 00:23:00,70.0,-99.9,-100.00,SSE,147,4.0,12.0,-999,-99.99,,,-99.99,,2013-06-16 04:23:00,
2013-06-16 00:34:00,70.0,-99.9,-100.00,SSE,147,4.0,12.0,-999,-99.99,,,-99.99,,2013-06-16 04:34:00,
2013-06-16 00:43:00,70.0,-99.9,-100.00,SSE,147,4.0,12.0,-999,-99.99,,,-99.99,,2013-06-16 04:43:00,
2013-06-16 01:02:00,69.0,-99.9,-100.00,SSE,148,5.0,13.0,-999,-99.99,,,-99.99,,2013-06-16 05:02:00,
2013-06-16 01:12:00,69.0,-99.9,-100.00,SSE,148,5.0,13.0,-999,-99.99,,,-99.99,,2013-06-16 05:12:00,
2013-06-16 01:22:00,69.0,-99.9,-100.00,SSE,148,5.0,13.0,-999,-99.99,,,-99.99,,2013-06-16 05:22:00,
2013-06-16 01:34:00,69.0,-99.9,-100.00,SSE,148,5.0,13.0,-999,-99.99,,,-99.99,,2013-06-16 05:34:00,
2013-06-16 01:43:00,69.0,-99.9,-100.00,SSE,148,5.0,13.0,-999,-99.99,,,-99.99,,2013-06-16 05:43:00,
2013-06-16 01:53:00,69.0,-99.9,-100.00,SSE,148,5.0,13.0,-999,-99.99,,,-99.99,,2013-06-16 05:53:00,
2013-06-16 02:02:00,70.0,-99.9,-100.00,South,176,11.0,22.0,-999,-99.99,,,-99.99,,2013-06-16 06:02:00,
2013-06-16 02:12:00,70.0,-99.9,-100.00,South,176,11.0,22.0,-999,-99.99,,,-99.99,,2013-06-16 06:12:00,
2013-06-16 02:23:00,70.0,-99.9,-100.00,South,176,11.0,22.0,-999,-99.99,,,-99.99,,2013-06-16 06:23:00,
2013-06-16 02:33:00,70.0,-99.9,-100.00,South,176,11.0,22.0,-999,-99.99,,,-99.99,,2013-06-16 06:33:00,
2013-06-16 02:43:00,70.0,-99.9,-100.00,South,176,11.0,22.0,-999,-99.99,,,-99.99,,2013-06-16 06:43:00,
2013-06-16 02:53:00,64.0,-99.9,-100.00,SSW,198,17.0,26.0,-999,-99.99,,,-99.99,,2013-06-16 06:53:00,
2013-06-16 03:02:00,64.0,-99.9,-100.00,SSW,198,17.0,26.0,-999,-99.99,,,-99.99,,2013-06-16 07:02:00,
2013-06-16 03:12:00,64.0,-99.9,-100.00,SSW,198,17.0,26.0,-999,-99.99,,,-99.99,,2013-06-16 07:12:00,
2013-06-16 03:23:00,64.0,-99.9,-100.00,SSW,198,17.0,26.0,-999,-99.99,,,-99.99,,2013-06-16 07:23:00,
2013-06-16 03:33:00,64.0,-99.9,-100.00,SSW,198,17.0,26.0,-999,-99.99,,,-99.99,,2013-06-16 07:33:00,
2013-06-16 03:43:00,64.0,-99.9,-100.00,SSW,198,17.0,26.0,-999,-99.99,,,-99.99,,2013-06-16 07:43:00,
2013-06-16 03:54:00,64.0,-99.9,-100.00,SSW,198,17.0,26.0,-999,-99.99,,,-99.99,,2013-06-16 07:54:00,
2013-06-16 04:02:00,62.0,-99.9,-100.00,North,360,7.0,19.0,-999,-99.99,,,-99.99,,2013-06-16 08:02:00,
2013-06-16 04:12:00,62.0,-99.9,-100.00,North,360,7.0,19.0,-999,-99.99,,,-99.99,,2013-06-16 08:12:00,
2013-06-16 04:22:00,62.0,-99.9,-100.00,North,360,7.0,19.0,-999,-99.99,,,-99.99,,2013-06-16 08:22:00,
2013-06-16 04:34:00,62.0,-99.9,-100.00,North,360,7.0,19.0,-999,-99.99,,,-99.99,,2013-06-16 08:34:00,
2013-06-16 04:44:00,62.0,-99.9,-100.00,North,360,7.0,19.0,-999,-99.99,,,-99.99,,2013-06-16 08:44:00,
2013-06-16 04:54:00,62.0,-99.9,-100.00,North,360,7.0,19.0,-999,-99.99,,,-99.99,,2013-06-16 08:54:00,
2013-06-16 05:02:00,64.0,-99.9,-100.00,SSE,167,5.0,8.0,-999,-99.99,,,-99.99,,2013-06-16 09:02:00,
2013-06-16 05:11:00,64.0,-99.9,-100.00,SSE,167,5.0,8.0,-999,-99.99,,,-99.99,,2013-06-16 09:11:00,
2013-06-16 05:22:00,64.0,-99.9,-100.00,SSE,167,5.0,8.0,-999,-99.99,,,-99.99,,2013-06-16 09:22:00,
2013-06-16 05:33:00,64.0,-99.9,-100.00,SSE,167,5.0,8.0,-999,-99.99,,,-99.99,,2013-06-16 09:33:00,
2013-06-16 05:43:00,64.0,-99.9,-100.00,SSE,167,5.0,8.0,-999,-99.99,,,-99.99,,2013-06-16 09:43:00,
2013-06-16 05:52:00,64.0,-99.9,-100.00,SSE,167,5.0,8.0,-999,-99.99,,,-99.99,,2013-06-16 09:52:00,
2013-06-16 06:02:00,66.0,-99.9,-100.00,South,182,10.0,13.0,-999,-99.99,,,-99.99,,2013-06-16 10:02:00,
2013-06-16 06:12:00,66.0,-99.9,-100.00,South,182,10.0,13.0,-999,-99.99,,,-99.99,,2013-06-16 10:12:00,
2013-06-16 06:22:00,66.0,-99.9,-100.00,South,182,10.0,13.0,-999,-99.99,,,-99.99,,2013-06-16 10:22:00,
2013-06-16 06:33:00,66.0,-99.9,-100.00,South,182,10.0,13.0,-999,-99.99,,,-99.99,,2013-06-16 10:33:00,
2013-06-16 06:43:00,66.0,-99.9,-100.00,South,182,10.0,13.0,-999,-99.99,,,-99.99,,2013-06-16 10:43:00,
2013-06-16 06:54:00,66.0,-99.9,-100.00,South,182,10.0,13.0,-999,-99.99,,,-99.99,,2013-06-16 10:54:00,
2013-06-16 07:02:00,65.0,-99.9,-100.00,South,179,10.0,13.0,-999,-99.99,,,-99.99,,2013-06-16 11:02:00,
2013-06-16 07:12:00,65.0,-99.9,-100.00,South,179,10.0,13.0,-999,-99.99,,,-99.99,,2013-06-16 11:12:00,
2013-06-16 07:22:00,65.0,-99.9,-100.00,South,179,10.0,13.0,-999,-99.99,,,-99.99,,2013-06-16 11:22:00,
2013-06-16 07:34:00,65.0,-99.9,-100.00,South,179,10.0,13.0,-999,-99.99,,,-99.99,,2013-06-16 11:34:00,
2013-06-16 07:43:00,65.0,-99.9,-100.00,South,179,10.0,13.0,-999,-99.99,,,-99.99,,2013-06-16 11:43:00,
2013-06-16 07:53:00,65.0,-99.9,-100.00,South,179,10.0,13.0,-999,-99.99,,,-99.99,,2013-06-16 11:53:00,
2013-06-16 08:02:00,63.0,-99.9,-100.00,South,180,12.0,17.0,-999,-99.99,,,-99.99,,2013-06-16 12:02:00,
2013-06-16 08:12:00,63.0,-99.9,-100.00,South,180,12.0,17.0,-999,-99.99,,,-99.99,,2013-06-16 12:12:00,
2013-06-16 08:22:00,63.0,-99.9,-100.00,South,180,12.0,17.0,-999,-99.99,,,-99.99,,2013-06-16 12:22:00,
2013-06-16 08:33:00,63.0,-99.9,-100.00,South,180,12.0,17.0,-999,-99.99,,,-99.99,,2013-06-16 12:33:00,
2013-06-16 08:43:00,63.0,-99.9,-100.00,South,180,12.0,17.0,-999,-99.99,,,-99.99,,2013-06-16 12:43:00,
2013-06-16 08:53:00,63.0,-99.9,-100.00,South,180,12.0,17.0,-999,-99.99,,,-99.99,,2013-06-16 12:53:00,
2013-06-16 09:02:00,63.0,-99.9,-100.00,South,180,12.0,17.0,-999,-99.99,,,-99.99,,2013-06-16 13:02:00,
2013-06-16 09:12:00,64.0,-99.9,-100.00,South,182,11.0,16.0,-999,-99.99,,,-99.99,,2013-06-16 13:12:00,
2013-06-16 09:22:00,64.0,-99.9,-100.00,South,182,11.0,16.0,-999,-99.99,,,-99.99,,2013-06-16 13:22:00,
2013-06-16 09:34:00,64.0,-99.9,-100.00,South,182,11.0,16.0,-999,-99.99,,,-99.99,,2013-06-16 13:34:00,
2013-06-16 09:43:00,64.0,-99.9,-100.00,South,182,11.0,16.0,-999,-99.99,,,-99.99,,2013-06-16 13:43:00,
2013-06-16 09:54:00,64.0,-99.9,-100.00,South,182,11.0,16.0,-999,-99.99,,,-99.99,,2013-06-16 13:54:00,
2013-06-16 10:02:00,63.0,-99.9,-100.00,South,177,11.0,14.0,-999,-99.99,,,-99.99,,2013-06-16 14:02:00,
2013-06-16 10:12:00,63.0,-99.9,-100.00,South,177,11.0,14.0,-999,-99.99,,,-99.99,,2013-06-16 14:12:00,
2013-06-16 10:23:00,63.0,-99.9,-100.00,South,177,11.0,14.0,-999,-99.99,,,-99.99,,2013-06-16 14:23:00,
2013-06-16 10:34:00,63.0,-99.9,-100.00,South,177,11.0,14.0,-999,-99.99,,,-99.99,,2013-06-16 14:34:00,
2013-06-16 10:44:00,63.0,-99.9,-100.00,South,177,11.0,14.0,-999,-99.99,,,-99.99,,2013-06-16 14:44:00,
2013-06-16 11:23:00,64.0,-99.9,-100.00,South,185,9.0,13.0,-999,-99.99,,,-99.99,,2013-06-16 15:23:00,
2013-06-16 11:34:00,64.0,-99.9,-100.00,South,185,9.0,13.0,-999,-99.99,,,-99.99,,2013-06-16 15:34:00,
2013-06-16 11:43:00,64.0,-99.9,-100.00,South,185,9.0,13.0,-999,-99.99,,,-99.99,,2013-06-16 15:43:00,
2013-06-16 11:53:00,65.0,-99.9,-100.00,South,179,8.0,12.0,-999,-99.99,,,-99.99,,2013-06-16 15:53:00,
2013-06-16 12:12:00,65.0,-99.9,-100.00,South,179,8.0,12.0,-999,-99.99,,,-99.99,,2013-06-16 16:12:00,
2013-06-16 12:43:00,65.0,-99.9,-100.00,South,179,8.0,12.0,-999,-99.99,,,-99.99,,2013-06-16 16:43:00,
2013-06-16 12:53:00,65.0,-99.9,-100.00,South,179,8.0,12.0,-999,-99.99,,,-99.99,,2013-06-16 16:53:00,
2013-06-16 13:02:00,65.0,-99.9,-100.00,South,181,10.0,12.0,-999,-99.99,,,-99.99,,2013-06-16 17:02:00,
2013-06-16 14:02:00,67.0,-99.9,-100.00,South,183,11.0,13.0,-999,-99.99,,,-99.99,,2013-06-16 18:02:00,
2013-06-16 14:12:00,67.0,-99.9,-100.00,South,183,11.0,13.0,-999,-99.99,,,-99.99,,2013-06-16 18:12:00,
2013-06-16 14:23:00,67.0,-99.9,-100.00,South,183,11.0,13.0,-999,-99.99,,,-99.99,,2013-06-16 18:23:00,
2013-06-16 14:34:00,67.0,-99.9,-100.00,South,183,11.0,13.0,-999,-99.99,,,-99.99,,2013-06-16 18:34:00,
2013-06-16 15:02:00,68.0,-99.9,-100.00,South,183,9.0,12.0,-999,-99.99,,,-99.99,,2013-06-16 19:02:00,
2013-06-16 15:12:00,68.0,-99.9,-100.00,South,183,9.0,12.0,-999,-99.99,,,-99.99,,2013-06-16 19:12:00,
2013-06-16 15:22:00,68.0,-99.9,-100.00,South,183,9.0,12.0,-999,-99.99,,,-99.99,,2013-06-16 19:22:00,
2013-06-16 16:12:00,70.0,-99.9,-100.00,South,182,10.0,12.0,-999,-99.99,,,-99.99,,2013-06-16 20:12:00,
2013-06-16 16:22:00,70.0,-99.9,-100.00,South,182,10.0,12.0,-999,-99.99,,,-99.99,,2013-06-16 20:22:00,
2013-06-16 16:34:00,70.0,-99.9,-100.00,South,182,10.0,12.0,-999,-99.99,,,-99.99,,2013-06-16 20:34:00,
2013-06-16 16:53:00,70.0,-99.9,-100.00,South,182,10.0,12.0,-999,-99.99,,,-99.99,,2013-06-16 20:53:00,
2013-06-16 17:02:00,70.0,-99.9,-100.00,South,185,6.0,10.0,-999,-99.99,,,-99.99,,2013-06-16 21:02:00,
2013-06-16 17:42:00,70.0,-99.9,-100.00,South,185,6.0,10.0,-999,-99.99,,,-99.99,,2013-06-16 21:42:00,
2013-06-16 19:50:00,80.0,-99.9,-100.00,South,184,3.0,5.0,-999,-99.99,,,-99.99,,2013-06-16 23:50:00,
2013-06-16 20:00:00,80.0,-99.9,-100.00,South,184,3.0,5.0,-999,-99.99,,,-99.99,,2013-06-17 00:00:00,
2013-06-16 20:10:00,80.0,-99.9,-100.00,South,184,3.0,5.0,-999,-99.99,,,-99.99,,2013-06-17 00:10:00,
2013-06-16 21:22:00,80.0,-99.9,-100.00,South,184,3.0,5.0,-999,-99.99,,,-99.99,,2013-06-17 01:22:00,
2013-06-16 21:32:00,81.0,-99.9,-100.00,South,188,1.0,3.0,-999,-99.99,,,-99.99,,2013-06-17 01:32:00,
2013-06-16 21:43:00,81.0,-99.9,-100.00,South,188,1.0,3.0,-999,-99.99,,,-99.99,,2013-06-17 01:43:00,
2013-06-16 21:53:00,81.0,-99.9,-100.00,South,188,1.0,3.0,-999,-99.99,,,-99.99,,2013-06-17 01:53:00,
2013-06-16 22:03:00,74.0,-99.9,-100.00,ESE,107,1.0,3.0,-999,-99.99,,,-99.99,,2013-06-17 02:03:00,
2013-06-16 22:12:00,74.0,-99.9,-100.00,ESE,107,1.0,3.0,-999,-99.99,,,-99.99,,2013-06-17 02:12:00,
2013-06-16 22:22:00,74.0,-99.9,-100.00,ESE,107,1.0,3.0,-999,-99.99,,,-99.99,,2013-06-17 02:22:00,
2013-06-16 22:34:00,74.0,-99.9,-100.00,ESE,107,1.0,3.0,-999,-99.99,,,-99.99,,2013-06-17 02:34:00,
2013-06-16 22:43:00,74.0,-99.9,-100.00,ESE,107,1.0,3.0,-999,-99.99,,,-99.99,,2013-06-17 02:43:00,
2013-06-16 22:50:00,74.0,-99.9,-100.00,SE,126,2.0,3.0,-999,-99.99,,,-99.99,,2013-06-17 02:50:00,
2013-06-16 22:53:00,74.0,-99.9,-100.00,ESE,107,1.0,3.0,-999,-99.99,,,-99.99,,2013-06-17 02:53:00,
2013-06-16 23:02:00,74.0,-99.9,-100.00,SE,126,2.0,3.0,-999,-99.99,,,-99.99,,2013-06-17 03:02:00,
2013-06-16 23:12:00,74.0,-99.9,-100.00,SE,126,2.0,3.0,-999,-99.99,,,-99.99,,2013-06-17 03:12:00,
2013-06-16 23:22:00,74.0,-99.9,-100.00,SE,126,2.0,3.0,-999,-99.99,,,-99.99,,2013-06-17 03:22:00,
2013-06-16 23:33:00,74.0,-99.9,-100.00,SE,126,2.0,3.0,-999,-99.99,,,-99.99,,2013-06-17 03:33:00,
2013-06-16 23:44:00,74.0,-99.9,-100.00,SE,126,2.0,3.0,-999,-99.99,,,-99.99,,2013-06-17 03:44:00,